Location: Unnamed
(34.9039°S, 56.1757°W)
Time: 05:48:31
(UTC-03:00)

ISS - Visible Passes

Search period start: 02 April 2023 00:00
Search period end: 12 April 2023 00:00
Orbit: 413 x 423 km, 51.6° (Epoch: 02 April)

Date Brightness Start Highest point End Pass type
(mag) Time Alt. Az. Time Alt. Az. Time Alt. Az.
05 Apr -1.2 06:16:21 10° SSW 06:18:51 18° SSE 06:21:21 10° ESE visible
06 Apr -0.9 05:29:00 10° S 05:30:39 13° SSE 05:32:18 10° SE visible
07 Apr -2.7 06:16:30 10° SW 06:19:50 45° SE 06:23:08 10° ENE visible
08 Apr -1.8 05:29:58 18° S 05:31:41 27° SE 05:34:39 10° E visible
09 Apr -0.8 04:44:23 16° SE 04:44:23 16° SE 04:45:50 10° ESE visible
09 Apr -3.5 06:17:21 12° WSW 06:20:23 51° NW 06:23:43 10° NNE visible
10 Apr -3.7 05:31:52 66° SSW 05:32:17 81° SE 05:35:41 10° NE visible
11 Apr -0.8 04:46:28 16° ENE 04:46:28 16° ENE 04:47:19 10° ENE visible
11 Apr -1.8 06:19:27 14° WNW 06:20:32 15° NW 06:22:36 10° NNW visible
